| time (UTC) | temp F | wind direction | speed MPH | gust MPH | rain 1hr in | rain 24hr in | rain mn in | humidity % | barometer mb |
| 20260903224314 | 76 | 263 | 0.0 | 0.0 | 0.00 | 0.02 | 0.02 | 79 | 1017.4 |
| 20260903223810 | 77 | 236 | 1.0 | 1.0 | 0.00 | 0.02 | 0.02 | 76 | 1017.2 |
| 20260903223308 | 77 | 260 | 0.0 | 0.0 | 0.00 | 0.02 | 0.02 | 76 | 1017.3 |
| 20260903222804 | 77 | 259 | 0.0 | 1.0 | 0.00 | 0.02 | 0.02 | 75 | 1017.3 |
| 20260903222305 | 77 | 257 | 0.0 | 1.0 | 0.00 | 0.02 | 0.02 | 74 | 1017.1 |
| 20260903221757 | 78 | 269 | 0.0 | 1.0 | 0.00 | 0.02 | 0.02 | 74 | 1017.2 |
| 20260903221256 | 78 | 272 | 0.0 | 2.0 | 0.00 | 0.02 | 0.02 | 75 | 1017.2 |
| 20260903220754 | 78 | 247 | 0.0 | 1.0 | 0.00 | 0.02 | 0.02 | 76 | 1017.2 |
| 20260903220249 | 78 | 265 | 1.0 | 2.0 | 0.00 | 0.02 | 0.02 | 75 | 1017.3 |
| 20260903215747 | 78 | 279 | 1.0 | 2.0 | 0.00 | 0.02 | 0.02 | 78 | 1017.5 |
| 20260903215244 | 78 | 331 | 1.0 | 2.0 | 0.00 | 0.02 | 0.02 | 77 | 1017.3 |
| 20260903214742 | 78 | 285 | 2.0 | 3.0 | 0.00 | 0.02 | 0.02 | 75 | 1017.1 |
| 20260903214239 | 79 | 331 | 1.0 | 5.0 | 0.00 | 0.02 | 0.02 | 76 | 1017.1 |
| 20260903213732 | 79 | 298 | 3.0 | 3.0 | 0.00 | 0.02 | 0.02 | 74 | 1017.2 |
| 20260903213228 | 79 | 274 | 4.0 | 7.0 | 0.00 | 0.02 | 0.02 | 73 | 1017.2 |
| 20260903212724 | 80 | 286 | 4.0 | 7.0 | 0.00 | 0.02 | 0.02 | 71 | 1017.5 |
| 20260903212220 | 80 | 321 | 3.0 | 6.0 | 0.00 | 0.02 | 0.02 | 70 | 1017.3 |
| 20260903211713 | 80 | 290 | 5.0 | 6.0 | 0.00 | 0.02 | 0.02 | 70 | 1017.1 |
| 20260903211210 | 80 | 311 | 2.0 | 3.0 | 0.00 | 0.02 | 0.02 | 71 | 1017.4 |
| 20260903210706 | 80 | 267 | 1.0 | 5.0 | 0.00 | 0.02 | 0.02 | 71 | 1017.4 |
| 20260903210201 | 80 | 331 | 1.0 | 6.0 | 0.00 | 0.02 | 0.02 | 70 | 1017.2 |
| 20260903205701 | 80 | 250 | 4.0 | 7.0 | 0.00 | 0.02 | 0.02 | 69 | 1017.6 |
| 20260903205200 | 80 | 275 | 5.0 | 7.0 | 0.00 | 0.02 | 0.02 | 67 | 1017.5 |
| 20260903204655 | 80 | 323 | 4.0 | 8.0 | 0.00 | 0.02 | 0.02 | 66 | 1017.3 |
| 20260903204152 | 80 | 273 | 5.0 | 9.0 | 0.00 | 0.02 | 0.02 | 65 | 1017.4 |
| 20260903203647 | 80 | 295 | 7.0 | 8.0 | 0.00 | 0.02 | 0.02 | 64 | 1017.7 |
| 20260903203142 | 80 | 310 | 5.0 | 11.0 | 0.00 | 0.02 | 0.02 | 65 | 1017.4 |
| 20260903202637 | 80 | 290 | 3.0 | 5.0 | 0.00 | 0.02 | 0.02 | 65 | 1017.3 |
| 20260903202132 | 80 | 340 | 3.0 | 6.0 | 0.00 | 0.02 | 0.02 | 67 | 1017.6 |
| 20260903201626 | 80 | 5 | 9.0 | 10.0 | 0.00 | 0.02 | 0.02 | 64 | 1017.3 |
| 20260903201126 | 80 | 290 | 5.0 | 9.0 | 0.00 | 0.02 | 0.02 | 66 | 1017.2 |
| 20260903200621 | 80 | 286 | 4.0 | 10.0 | 0.00 | 0.02 | 0.02 | 66 | 1017.6 |
| 20260903200116 | 80 | 298 | 3.0 | 10.0 | 0.00 | 0.02 | 0.02 | 67 | 1017.3 |
| 20260903195612 | 80 | 297 | 5.0 | 9.0 | 0.00 | 0.02 | 0.02 | 67 | 1017.3 |
| 20260903195107 | 81 | 289 | 5.0 | 7.0 | 0.00 | 0.02 | 0.02 | 70 | 1017.4 |
| 20260903194602 | 80 | 289 | 5.0 | 7.0 | 0.00 | 0.02 | 0.02 | 71 | 1017.5 |
| 20260903194057 | 79 | 321 | 6.0 | 13.0 | 0.00 | 0.02 | 0.02 | 66 | 1017.6 |
| 20260903193553 | 79 | 291 | 2.0 | 5.0 | 0.00 | 0.02 | 0.02 | 78 | 1017.6 |
| 20260903193048 | 79 | 259 | 7.0 | 8.0 | 0.00 | 0.02 | 0.02 | 75 | 1017.7 |
| 20260903192545 | 78 | 299 | 4.0 | 5.0 | 0.00 | 0.02 | 0.02 | 77 | 1017.9 |
| 20260903192040 | 79 | 301 | 7.0 | 11.0 | 0.00 | 0.02 | 0.02 | 77 | 1017.8 |
| 20260903191537 | 79 | 319 | 7.0 | 10.0 | 0.00 | 0.02 | 0.02 | 78 | 1017.9 |
| 20260903191037 | 80 | 298 | 5.0 | 6.0 | 0.00 | 0.02 | 0.02 | 78 | 1017.7 |
| 20260903190536 | 80 | 340 | 7.0 | 8.0 | 0.00 | 0.02 | 0.02 | 77 | 1017.4 |
| 20260903190030 | 80 | 321 | 5.0 | 8.0 | 0.00 | 0.02 | 0.02 | 78 | 1017.8 |
| 20260903185526 | 79 | 357 | 2.0 | 5.0 | 0.00 | 0.02 | 0.02 | 81 | 1017.6 |
| 20260903185021 | 79 | 275 | 5.0 | 8.0 | 0.00 | 0.02 | 0.02 | 81 | 1017.8 |
| 20260903184518 | 78 | 306 | 8.0 | 10.0 | 0.00 | 0.02 | 0.02 | 81 | 1018.0 |
| 20260903184018 | 78 | 292 | 5.0 | 13.0 | 0.00 | 0.02 | 0.02 | 82 | 1018.0 |
| 20260903183517 | 78 | 2 | 4.0 | 7.0 | 0.00 | 0.02 | 0.02 | 82 | 1018.0 |
| 20260903183012 | 76 | 307 | 3.0 | 6.0 | 0.00 | 0.02 | 0.02 | 85 | 1018.0 |
| 20260903182510 | 78 | 352 | 5.0 | 7.0 | 0.00 | 0.02 | 0.02 | 85 | 1018.2 |
| 20260903182006 | 78 | 329 | 1.0 | 3.0 | 0.00 | 0.02 | 0.02 | 86 | 1018.0 |
| 20260903181500 | 77 | 353 | 3.0 | 7.0 | 0.00 | 0.02 | 0.02 | 87 | 1018.0 |
| 20260903180959 | 78 | 347 | 2.0 | 6.0 | 0.00 | 0.02 | 0.02 | 86 | 1018.0 |
| 20260903180455 | 77 | 340 | 2.0 | 5.0 | 0.00 | 0.02 | 0.02 | 89 | 1018.3 |
| 20260903175954 | 77 | 5 | 4.0 | 6.0 | 0.00 | 0.02 | 0.02 | 89 | 1018.2 |
| 20260903175448 | 76 | 342 | 3.0 | 5.0 | 0.00 | 0.02 | 0.02 | 89 | 1018.2 |
| 20260903174947 | 75 | 319 | 3.0 | 7.0 | 0.00 | 0.02 | 0.02 | 89 | 1018.3 |
| 20260903174443 | 76 | 4 | 4.0 | 8.0 | 0.00 | 0.02 | 0.02 | 89 | 1018.3 |
| 20260903173942 | 75 | 311 | 2.0 | 3.0 | 0.00 | 0.02 | 0.02 | 92 | 1018.4 |
| 20260903173438 | 75 | 357 | 3.0 | 6.0 | 0.00 | 0.02 | 0.02 | 92 | 1018.5 |
| 20260903172933 | 75 | 304 | 2.0 | 5.0 | 0.00 | 0.02 | 0.02 | 91 | 1018.3 |
| 20260903172428 | 75 | 353 | 4.0 | 9.0 | 0.00 | 0.02 | 0.02 | 91 | 1018.4 |
| 20260903171924 | 75 | 325 | 6.0 | 7.0 | 0.00 | 0.02 | 0.02 | 92 | 1018.4 |
| 20260903171418 | 75 | 292 | 6.0 | 7.0 | 0.00 | 0.02 | 0.02 | 91 | 1018.6 |
| 20260903170913 | 75 | 300 | 5.0 | 7.0 | 0.00 | 0.02 | 0.02 | 91 | 1018.7 |
| 20260903170408 | 75 | 331 | 5.0 | 7.0 | 0.00 | 0.02 | 0.02 | 91 | 1018.6 |
| 20260903165907 | 75 | 315 | 3.0 | 5.0 | 0.00 | 0.02 | 0.02 | 91 | 1018.5 |
| 20260903165401 | 75 | 359 | 3.0 | 6.0 | 0.00 | 0.02 | 0.02 | 91 | 1018.5 |
| 20260903164856 | 75 | 324 | 5.0 | 7.0 | 0.00 | 0.02 | 0.02 | 91 | 1018.7 |
| 20260903164351 | 74 | 279 | 6.0 | 7.0 | 0.00 | 0.02 | 0.02 | 92 | 1018.7 |
| 20260903163850 | 74 | 19 | 4.0 | 6.0 | 0.00 | 0.02 | 0.02 | 92 | 1018.7 |
| 20260903163347 | 75 | 335 | 3.0 | 6.0 | 0.00 | 0.02 | 0.02 | 92 | 1018.7 |
| 20260903162842 | 74 | 333 | 4.0 | 5.0 | 0.00 | 0.02 | 0.02 | 92 | 1018.9 |
| 20260903162339 | 74 | 320 | 2.0 | 3.0 | 0.00 | 0.02 | 0.02 | 93 | 1018.5 |
| 20260903161834 | 74 | 28 | 1.0 | 6.0 | 0.00 | 0.02 | 0.02 | 93 | 1019.0 |
| 20260903161330 | 74 | 284 | 2.0 | 5.0 | 0.00 | 0.02 | 0.02 | 93 | 1019.1 |
| 20260903160825 | 74 | 331 | 4.0 | 6.0 | 0.00 | 0.02 | 0.02 | 93 | 1019.0 |
| 20260903160324 | 74 | 306 | 3.0 | 5.0 | 0.00 | 0.02 | 0.02 | 93 | 1019.1 |
| 20260903155823 | 74 | 315 | 5.0 | 6.0 | 0.00 | 0.02 | 0.02 | 92 | 1019.0 |
| 20260903155318 | 74 | 321 | 3.0 | 5.0 | 0.00 | 0.02 | 0.02 | 92 | 1019.2 |
| 20260903154813 | 74 | 283 | 3.0 | 5.0 | 0.00 | 0.02 | 0.02 | 92 | 1019.0 |
| 20260903154310 | 75 | 305 | 3.0 | 5.0 | 0.00 | 0.02 | 0.02 | 90 | 1019.0 |
| 20260903153805 | 75 | 316 | 4.0 | 5.0 | 0.00 | 0.02 | 0.02 | 89 | 1019.1 |
| 20260903153301 | 75 | 276 | 1.0 | 6.0 | 0.00 | 0.02 | 0.02 | 90 | 1018.9 |
| 20260903152757 | 75 | 303 | 3.0 | 8.0 | 0.00 | 0.02 | 0.02 | 88 | 1019.1 |
| 20260903152252 | 75 | 295 | 3.0 | 5.0 | 0.00 | 0.02 | 0.02 | 88 | 1019.1 |
| 20260903151752 | 76 | 321 | 5.0 | 6.0 | 0.00 | 0.02 | 0.02 | 89 | 1019.0 |
| 20260903151248 | 75 | 238 | 7.0 | 8.0 | 0.00 | 0.02 | 0.02 | 88 | 1019.0 |
| 20260903150748 | 75 | 258 | 2.0 | 7.0 | 0.00 | 0.02 | 0.02 | 89 | 1019.2 |
| 20260903150242 | 75 | 281 | 5.0 | 7.0 | 0.00 | 0.02 | 0.02 | 88 | 1019.1 |
| 20260903145737 | 74 | 317 | 8.0 | 11.0 | 0.00 | 0.02 | 0.02 | 89 | 1019.1 |
| 20260903145233 | 75 | 336 | 6.0 | 9.0 | 0.00 | 0.02 | 0.02 | 90 | 1019.0 |
| 20260903144731 | 75 | 313 | 3.0 | 5.0 | 0.00 | 0.02 | 0.02 | 90 | 1019.0 |
| 20260903144227 | 74 | 318 | 2.0 | 6.0 | 0.00 | 0.02 | 0.02 | 90 | 1018.7 |
| 20260903143723 | 74 | 332 | 5.0 | 9.0 | 0.00 | 0.02 | 0.02 | 90 | 1019.1 |
| 20260903143219 | 74 | 330 | 2.0 | 5.0 | 0.00 | 0.02 | 0.02 | 90 | 1019.1 |
| 20260903142715 | 74 | 302 | 5.0 | 9.0 | 0.00 | 0.02 | 0.02 | 90 | 1019.0 |
| 20260903142211 | 74 | 287 | 5.0 | 10.0 | 0.00 | 0.02 | 0.02 | 90 | 1019.1 |
| 20260903141706 | 73 | 349 | 5.0 | 8.0 | 0.00 | 0.02 | 0.02 | 91 | 1019.1 |
| 20260903141201 | 73 | 311 | 4.0 | 7.0 | 0.00 | 0.02 | 0.02 | 92 | 1018.7 |
| 20260903140656 | 73 | 274 | 5.0 | 7.0 | 0.00 | 0.02 | 0.02 | 91 | 1019.1 |
| 20260903140152 | 73 | 273 | 4.0 | 6.0 | 0.00 | 0.02 | 0.02 | 92 | 1018.7 |
| 20260903135647 | 73 | 269 | 2.0 | 11.0 | 0.00 | 0.02 | 0.02 | 91 | 1018.9 |
| 20260903135142 | 73 | 293 | 3.0 | 5.0 | 0.00 | 0.02 | 0.02 | 92 | 1018.9 |
| 20260903134641 | 73 | 335 | 5.0 | 8.0 | 0.00 | 0.02 | 0.02 | 91 | 1018.7 |
| 20260903134137 | 73 | 225 | 2.0 | 5.0 | 0.00 | 0.02 | 0.02 | 91 | 1018.9 |
| 20260903133635 | 73 | 307 | 4.0 | 5.0 | 0.00 | 0.02 | 0.02 | 91 | 1018.7 |
| 20260903133130 | 73 | 349 | 4.0 | 6.0 | 0.00 | 0.02 | 0.02 | 92 | 1019.0 |
| 20260903132631 | 72 | 278 | 2.0 | 6.0 | 0.00 | 0.02 | 0.02 | 93 | 1018.7 |
| 20260903132131 | 72 | 324 | 3.0 | 3.0 | 0.00 | 0.02 | 0.02 | 93 | 1018.9 |
| 20260903131625 | 72 | 288 | 1.0 | 5.0 | 0.00 | 0.02 | 0.02 | 93 | 1019.0 |
| 20260903131119 | 72 | 351 | 3.0 | 3.0 | 0.00 | 0.02 | 0.02 | 94 | 1019.1 |
| 20260903130616 | 71 | 40 | 1.0 | 3.0 | 0.00 | 0.02 | 0.02 | 94 | 1019.2 |
| 20260903130108 | 71 | 17 | 1.0 | 2.0 | 0.00 | 0.02 | 0.02 | 94 | 1019.0 |
| 20260903125607 | 70 | 261 | 2.0 | 3.0 | 0.00 | 0.02 | 0.02 | 95 | 1018.9 |
| 20260903125056 | 69 | 353 | 3.0 | 3.0 | 0.00 | 0.02 | 0.02 | 96 | 1019.1 |
| 20260903124550 | 69 | 7 | 2.0 | 3.0 | 0.00 | 0.02 | 0.02 | 96 | 1019.3 |
| 20260903124044 | 68 | 328 | 2.0 | 2.0 | 0.00 | 0.02 | 0.02 | 96 | 1019.3 |
| 20260903123544 | 68 | 358 | 0.0 | 2.0 | 0.00 | 0.02 | 0.02 | 97 | 1019.4 |
| 20260903123043 | 68 | 274 | 2.0 | 3.0 | 0.00 | 0.02 | 0.02 | 97 | 1019.8 |
| 20260903122543 | 67 | 23 | 1.0 | 1.0 | 0.00 | 0.02 | 0.02 | 97 | 1019.7 |
| 20260903122042 | 67 | 309 | 1.0 | 1.0 | 0.00 | 0.02 | 0.02 | 97 | 1019.4 |
| 20260903121537 | 67 | 35 | 2.0 | 2.0 | 0.00 | 0.02 | 0.02 | 97 | 1019.4 |
| 20260903121033 | 67 | 5 | 5.0 | 6.0 | 0.00 | 0.02 | 0.02 | 97 | 1019.3 |
| 20260903120532 | 66 | 317 | 0.0 | 0.0 | 0.00 | 0.02 | 0.02 | 98 | 1019.1 |
| 20260903120026 | 66 | 317 | 0.0 | 0.0 | 0.00 | 0.02 | 0.02 | 98 | 1019.3 |
| 20260903115525 | 66 | 317 | 0.0 | 0.0 | 0.00 | 0.02 | 0.02 | 98 | 1019.5 |
| 20260903115020 | 66 | 317 | 0.0 | 0.0 | 0.00 | 0.02 | 0.02 | 98 | 1019.2 |
| 20260903114515 | 65 | 118 | 2.0 | 2.0 | 0.00 | 0.02 | 0.02 | 98 | 1019.4 |
| 20260903114011 | 65 | 178 | 1.0 | 1.0 | 0.00 | 0.02 | 0.02 | 98 | 1019.2 |
| 20260903113507 | 65 | 167 | 1.0 | 2.0 | 0.00 | 0.02 | 0.02 | 98 | 1019.4 |
| 20260903113003 | 64 | 18 | 0.0 | 0.0 | 0.00 | 0.02 | 0.02 | 98 | 1019.3 |
| 20260903112458 | 64 | 18 | 0.0 | 0.0 | 0.00 | 0.02 | 0.02 | 98 | 1019.0 |
| 20260903111957 | 64 | 295 | 0.0 | 0.0 | 0.00 | 0.02 | 0.02 | 98 | 1019.1 |
| 20260903111451 | 64 | 295 | 0.0 | 0.0 | 0.00 | 0.02 | 0.02 | 98 | 1019.4 |
| 20260903110948 | 64 | 297 | 0.0 | 0.0 | 0.00 | 0.02 | 0.02 | 98 | 1019.4 |
| 20260903110443 | 64 | 349 | 0.0 | 0.0 | 0.00 | 0.02 | 0.02 | 98 | 1019.3 |
| 20260903105937 | 64 | 349 | 0.0 | 0.0 | 0.00 | 0.02 | 0.02 | 98 | 1019.7 |
| 20260903105433 | 64 | 349 | 0.0 | 0.0 | 0.00 | 0.02 | 0.02 | 98 | 1019.3 |
| 20260903104932 | 63 | 324 | 0.0 | 0.0 | 0.00 | 0.02 | 0.02 | 98 | 1019.7 |
| 20260903104431 | 63 | 329 | 0.0 | 1.0 | 0.00 | 0.02 | 0.02 | 98 | 1019.7 |
| 20260903103929 | 63 | 296 | 0.0 | 0.0 | 0.00 | 0.02 | 0.02 | 98 | 1019.5 |
| 20260903103424 | 63 | 316 | 0.0 | 0.0 | 0.00 | 0.02 | 0.02 | 98 | 1019.4 |
| 20260903102920 | 63 | 304 | 0.0 | 0.0 | 0.00 | 0.02 | 0.02 | 97 | 1019.4 |
| 20260903102415 | 63 | 283 | 0.0 | 0.0 | 0.00 | 0.02 | 0.02 | 97 | 1019.5 |
| 20260903101914 | 63 | 339 | 0.0 | 1.0 | 0.00 | 0.02 | 0.02 | 97 | 1019.2 |
| 20260903101409 | 63 | 282 | 0.0 | 0.0 | 0.00 | 0.02 | 0.02 | 97 | 1019.2 |
| 20260903100904 | 63 | 302 | 0.0 | 0.0 | 0.00 | 0.02 | 0.02 | 97 | 1019.1 |
| 20260903100359 | 63 | 342 | 0.0 | 0.0 | 0.00 | 0.02 | 0.02 | 97 | 1019.1 |
| 20260903095856 | 63 | 6 | 0.0 | 1.0 | 0.00 | 0.02 | 0.02 | 97 | 1019.1 |
| 20260903095350 | 63 | 300 | 1.0 | 1.0 | 0.00 | 0.02 | 0.02 | 97 | 1019.3 |
| 20260903094845 | 63 | 287 | 0.0 | 0.0 | 0.00 | 0.02 | 0.02 | 97 | 1019.3 |
| 20260903094339 | 63 | 287 | 0.0 | 0.0 | 0.00 | 0.02 | 0.02 | 97 | 1019.1 |
| 20260903093836 | 63 | 311 | 0.0 | 0.0 | 0.00 | 0.02 | 0.02 | 97 | 1019.0 |
| 20260903093331 | 64 | 46 | 2.0 | 2.0 | 0.00 | 0.02 | 0.02 | 97 | 1019.2 |
| 20260903092826 | 64 | 46 | 2.0 | 2.0 | 0.00 | 0.02 | 0.02 | 97 | 1019.0 |
| 20260903092320 | 64 | 133 | 2.0 | 2.0 | 0.00 | 0.02 | 0.02 | 97 | 1019.1 |
| 20260903091819 | 64 | 133 | 2.0 | 2.0 | 0.00 | 0.02 | 0.02 | 97 | 1019.1 |
| 20260903091313 | 64 | 133 | 2.0 | 2.0 | 0.00 | 0.02 | 0.02 | 97 | 1019.0 |
| 20260903090809 | 64 | 133 | 2.0 | 2.0 | 0.00 | 0.02 | 0.02 | 97 | 1019.1 |
| 20260903090309 | 64 | 158 | 3.0 | 3.0 | 0.00 | 0.02 | 0.02 | 97 | 1019.0 |
| 20260903085807 | 64 | 117 | 3.0 | 5.0 | 0.00 | 0.02 | 0.02 | 97 | 1019.3 |
| 20260903085305 | 64 | 117 | 3.0 | 5.0 | 0.00 | 0.02 | 0.02 | 97 | 1018.7 |
| 20260903084800 | 64 | 116 | 2.0 | 3.0 | 0.00 | 0.02 | 0.02 | 97 | 1019.0 |
| 20260903084254 | 64 | 154 | 3.0 | 3.0 | 0.00 | 0.02 | 0.02 | 97 | 1019.0 |
| 20260903083750 | 65 | 165 | 1.0 | 1.0 | 0.00 | 0.02 | 0.02 | 97 | 1019.2 |
| 20260903083245 | 64 | 143 | 1.0 | 1.0 | 0.00 | 0.02 | 0.02 | 97 | 1019.1 |
| 20260903082744 | 65 | 127 | 2.0 | 2.0 | 0.00 | 0.02 | 0.02 | 97 | 1019.1 |
| 20260903082240 | 65 | 127 | 1.0 | 1.0 | 0.00 | 0.02 | 0.02 | 96 | 1019.2 |
| 20260903081739 | 65 | 127 | 1.0 | 1.0 | 0.00 | 0.02 | 0.02 | 96 | 1018.9 |
| 20260903081235 | 65 | 127 | 1.0 | 1.0 | 0.00 | 0.02 | 0.02 | 96 | 1019.2 |
| 20260903080732 | 65 | 104 | 1.0 | 1.0 | 0.00 | 0.02 | 0.02 | 96 | 1019.1 |
| 20260903080229 | 65 | 72 | 0.0 | 0.0 | 0.00 | 0.02 | 0.02 | 96 | 1019.2 |
| 20260903075728 | 66 | 205 | 0.0 | 0.0 | 0.00 | 0.02 | 0.02 | 96 | 1019.2 |
| 20260903075223 | 66 | 205 | 0.0 | 0.0 | 0.00 | 0.02 | 0.02 | 96 | 1019.1 |
| 20260903074722 | 66 | 205 | 0.0 | 0.0 | 0.00 | 0.02 | 0.02 | 96 | 1019.1 |
| 20260903074218 | 66 | 205 | 0.0 | 0.0 | 0.00 | 0.02 | 0.02 | 96 | 1019.6 |
| 20260903073713 | 66 | 205 | 0.0 | 0.0 | 0.00 | 0.02 | 0.02 | 96 | 1019.2 |
| 20260903073208 | 66 | 267 | 0.0 | 0.0 | 0.00 | 0.02 | 0.02 | 96 | 1019.2 |
| 20260903072704 | 0 | 0.0 | 0.0 | 0.00 | 0.00 | 0.00 | 1019.6 | ||
| 20260903072200 | 0 | 0.0 | 0.0 | 0.00 | 0.00 | 0.00 | 1019.2 | ||
| 20260903071656 | 0 | 0.0 | 0.0 | 0.00 | 0.00 | 0.00 | 1019.4 | ||
| 20260903071151 | 64 | 183 | 1.0 | 1.0 | 0.00 | 0.02 | 0.02 | 97 | 1019.3 |
| 20260903070646 | 64 | 183 | 1.0 | 1.0 | 0.00 | 0.02 | 0.02 | 97 | 1019.3 |
| 20260903070142 | 64 | 183 | 1.0 | 1.0 | 0.00 | 0.02 | 0.02 | 97 | 1019.4 |
| 20260903065641 | 64 | 183 | 1.0 | 1.0 | 0.00 | 0.02 | 0.02 | 97 | 1019.5 |
| 20260903065136 | 64 | 183 | 1.0 | 1.0 | 0.00 | 0.02 | 0.02 | 97 | 1019.6 |
| 20260903064635 | 64 | 183 | 1.0 | 1.0 | 0.00 | 0.02 | 0.02 | 97 | 1019.4 |
| 20260903064130 | 64 | 183 | 1.0 | 1.0 | 0.00 | 0.02 | 0.02 | 97 | 1019.5 |
| 20260903063626 | 64 | 183 | 1.0 | 1.0 | 0.00 | 0.02 | 0.02 | 97 | 1019.3 |
| 20260903063121 | 64 | 183 | 1.0 | 1.0 | 0.00 | 0.02 | 0.02 | 97 | 1019.3 |
| 20260903062617 | 64 | 183 | 1.0 | 1.0 | 0.00 | 0.02 | 0.02 | 97 | 1019.2 |
| 20260903062112 | 64 | 183 | 1.0 | 1.0 | 0.00 | 0.02 | 0.02 | 97 | 1019.2 |
| 20260903061607 | 64 | 183 | 1.0 | 1.0 | 0.00 | 0.02 | 0.02 | 97 | 1019.0 |
| 20260903061106 | 64 | 242 | 0.0 | 1.0 | 0.00 | 0.02 | 0.02 | 96 | 1019.3 |
| 20260903060601 | 64 | 264 | 2.0 | 2.0 | 0.00 | 0.02 | 0.02 | 96 | 1019.1 |
| 20260903060056 | 64 | 357 | 1.0 | 2.0 | 0.00 | 0.02 | 0.02 | 96 | 1018.7 |
| 20260903055554 | 65 | 358 | 3.0 | 3.0 | 0.00 | 0.02 | 0.02 | 96 | 1019.0 |
| 20260903055052 | 65 | 358 | 3.0 | 3.0 | 0.00 | 0.02 | 0.02 | 96 | 1019.1 |
| 20260903054547 | 65 | 358 | 3.0 | 3.0 | 0.00 | 0.02 | 0.02 | 96 | 1018.9 |
| 20260903054043 | 65 | 358 | 3.0 | 3.0 | 0.00 | 0.02 | 0.02 | 96 | 1019.2 |
| 20260903053538 | 65 | 358 | 3.0 | 3.0 | 0.00 | 0.02 | 0.02 | 96 | 1018.9 |
| 20260903053035 | 66 | 23 | 1.0 | 2.0 | 0.00 | 0.02 | 0.02 | 95 | 1019.1 |
| 20260903052530 | 66 | 23 | 1.0 | 2.0 | 0.00 | 0.02 | 0.02 | 95 | 1019.0 |
| 20260903052026 | 66 | 359 | 2.0 | 2.0 | 0.00 | 0.02 | 0.02 | 96 | 1019.1 |
| 20260903051525 | 66 | 359 | 2.0 | 2.0 | 0.00 | 0.02 | 0.02 | 96 | 1019.0 |
| 20260903051021 | 66 | 359 | 2.0 | 2.0 | 0.00 | 0.02 | 0.02 | 96 | 1019.0 |
| 20260903050520 | 66 | 349 | 3.0 | 3.0 | 0.00 | 0.02 | 0.02 | 96 | 1019.0 |
| 20260903050016 | 66 | 1 | 0.0 | 1.0 | 0.00 | 0.02 | 0.02 | 96 | 1019.2 |
| 20260903045510 | 66 | 351 | 0.0 | 0.0 | 0.00 | 0.02 | 0.02 | 96 | 1019.1 |
| 20260903045007 | 66 | 320 | 1.0 | 2.0 | 0.00 | 0.02 | 0.02 | 96 | 1019.3 |
| 20260903044503 | 66 | 124 | 2.0 | 3.0 | 0.00 | 0.02 | 0.02 | 96 | 1019.0 |
| 20260903043958 | 65 | 184 | 2.0 | 5.0 | 0.00 | 0.02 | 0.02 | 96 | 1019.4 |
| 20260903043453 | 65 | 130 | 2.0 | 2.0 | 0.00 | 0.02 | 0.02 | 97 | 1019.5 |
| 20260903042952 | 64 | 273 | 0.0 | 0.0 | 0.00 | 0.02 | 0.02 | 97 | 1019.3 |
| 20260903042448 | 64 | 228 | 0.0 | 0.0 | 0.12 | 0.02 | 0.02 | 98 | 1019.4 |
| 20260903041943 | 64 | 121 | 4.0 | 5.0 | 0.00 | 0.00 | 0.00 | 97 | 1019.4 |
| 20260903041440 | 64 | 121 | 4.0 | 5.0 | 0.00 | 0.00 | 0.00 | 97 | 1019.3 |
| 20260903040935 | 64 | 121 | 4.0 | 5.0 | 0.00 | 0.00 | 0.00 | 97 | 1019.8 |
| 20260903040434 | 64 | 121 | 4.0 | 5.0 | 0.00 | 0.00 | 0.00 | 97 | 1019.7 |
| 20260903035930 | 64 | 121 | 4.0 | 5.0 | 0.00 | 0.17 | 0.17 | 97 | 1019.8 |
| 20260903035425 | 64 | 121 | 4.0 | 5.0 | 0.00 | 0.17 | 0.17 | 97 | 1019.5 |
| 20260903034920 | 64 | 121 | 4.0 | 5.0 | 0.00 | 0.17 | 0.17 | 97 | 1019.7 |
| 20260903034415 | 64 | 121 | 4.0 | 5.0 | 0.00 | 0.17 | 0.17 | 97 | 1019.9 |
| 20260903033910 | 64 | 121 | 4.0 | 5.0 | 0.24 | 0.17 | 0.17 | 97 | 1020.1 |
| 20260903033405 | 64 | 78 | 3.0 | 5.0 | 0.24 | 0.17 | 0.17 | 97 | 1019.6 |
| 20260903032900 | 65 | 121 | 2.0 | 3.0 | 0.00 | 0.13 | 0.13 | 97 | 1020.2 |
| 20260903032356 | 65 | 121 | 2.0 | 3.0 | 0.00 | 0.13 | 0.13 | 97 | 1020.5 |
| 20260903031851 | 65 | 121 | 2.0 | 3.0 | 0.66 | 0.13 | 0.13 | 97 | 1020.3 |
| 20260903031350 | 65 | 148 | 1.0 | 1.0 | 0.00 | 0.02 | 0.02 | 96 | 1020.4 |
| 20260903030846 | 65 | 148 | 1.0 | 1.0 | 0.00 | 0.02 | 0.02 | 96 | 1021.0 |
| 20260903030342 | 65 | 148 | 1.0 | 1.0 | 0.00 | 0.02 | 0.02 | 96 | 1020.7 |
| 20260903025837 | 65 | 148 | 1.0 | 1.0 | 0.00 | 0.02 | 0.02 | 96 | 1021.2 |
| 20260903025332 | 65 | 148 | 1.0 | 1.0 | 0.00 | 0.02 | 0.02 | 96 | 1021.0 |
| 20260903024832 | 65 | 148 | 1.0 | 1.0 | 0.00 | 0.02 | 0.02 | 96 | 1020.9 |
| 20260903024331 | 65 | 148 | 1.0 | 1.0 | 0.00 | 0.02 | 0.02 | 96 | 1020.8 |
| 20260903023822 | 65 | 148 | 1.0 | 1.0 | 0.00 | 0.02 | 0.02 | 96 | 1020.9 |
| 20260903023317 | 65 | 148 | 1.0 | 1.0 | 0.00 | 0.02 | 0.02 | 96 | 1020.8 |
| 20260903022812 | 65 | 148 | 1.0 | 1.0 | 0.00 | 0.02 | 0.02 | 96 | 1020.6 |
| 20260903022310 | 65 | 148 | 1.0 | 1.0 | 0.00 | 0.02 | 0.02 | 96 | 1020.5 |
| 20260903021805 | 65 | 148 | 1.0 | 1.0 | 0.05 | 0.02 | 0.02 | 96 | 1020.8 |
| 20260903021301 | 65 | 99 | 1.0 | 1.0 | 0.05 | 0.02 | 0.02 | 96 | 1020.7 |
| 20260903020800 | 65 | 120 | 3.0 | 5.0 | 0.00 | 0.01 | 0.01 | 96 | 1020.8 |
| 20260903020255 | 65 | 101 | 3.0 | 5.0 | 0.00 | 0.01 | 0.01 | 96 | 1020.7 |
| 20260903015750 | 65 | 181 | 1.0 | 1.0 | 0.07 | 0.01 | 0.01 | 96 | 1020.9 |
| 20260903015246 | 65 | 10 | 0.0 | 0.0 | 0.00 | 0.00 | 0.00 | 95 | 1021.5 |
| 20260903014741 | 65 | 50 | 0.0 | 0.0 | 0.00 | 0.00 | 0.00 | 95 | 1021.4 |
| 20260903014240 | 65 | 19 | 0.0 | 1.0 | 0.00 | 0.00 | 0.00 | 95 | 1022.0 |
| 20260903013736 | 65 | 24 | 0.0 | 1.0 | 0.00 | 0.00 | 0.00 | 95 | 1022.0 |
| 20260903013235 | 65 | 25 | 0.0 | 1.0 | 0.00 | 0.00 | 0.00 | 95 | 1022.1 |
| 20260903012733 | 65 | 298 | 0.0 | 0.0 | 0.00 | 0.00 | 0.00 | 95 | 1022.0 |
| 20260903012228 | 65 | 325 | 0.0 | 1.0 | 0.00 | 0.00 | 0.00 | 95 | 1022.2 |
| 20260903011727 | 65 | 16 | 0.0 | 2.0 | 0.00 | 0.00 | 0.00 | 95 | 1022.0 |
| 20260903011221 | 65 | 44 | 1.0 | 2.0 | 0.00 | 0.00 | 0.00 | 95 | 1021.6 |
| 20260903010712 | 65 | 114 | 2.0 | 2.0 | 0.00 | 0.00 | 0.00 | 95 | 1022.0 |
| 20260903010211 | 66 | 47 | 0.0 | 2.0 | 0.00 | 0.00 | 0.00 | 95 | 1021.7 |
| 20260903005710 | 66 | 36 | 0.0 | 2.0 | 0.00 | 0.00 | 0.00 | 95 | 1021.6 |
| 20260903005205 | 66 | 142 | 5.0 | 6.0 | 0.00 | 0.00 | 0.00 | 95 | 1021.6 |
| 20260903004701 | 65 | 124 | 3.0 | 7.0 | 0.00 | 0.00 | 0.00 | 95 | 1021.7 |
| 20260903004156 | 65 | 101 | 2.0 | 7.0 | 0.00 | 0.00 | 0.00 | 95 | 1021.6 |
| 20260903003652 | 65 | 102 | 2.0 | 5.0 | 0.00 | 0.00 | 0.00 | 95 | 1021.7 |
| 20260903003147 | 65 | 34 | 1.0 | 5.0 | 0.00 | 0.00 | 0.00 | 95 | 1022.1 |
| 20260903002642 | 66 | 161 | 1.0 | 3.0 | 0.00 | 0.00 | 0.00 | 95 | 1021.8 |
| 20260903002136 | 66 | 268 | 0.0 | 1.0 | 0.00 | 0.00 | 0.00 | 95 | 1021.9 |
| 20260903001630 | 66 | 5 | 2.0 | 3.0 | 0.00 | 0.00 | 0.00 | 95 | 1021.8 |
| 20260903001125 | 66 | 53 | 1.0 | 2.0 | 0.00 | 0.00 | 0.00 | 95 | 1021.6 |
| 20260903000621 | 66 | 50 | 0.0 | 1.0 | 0.00 | 0.00 | 0.00 | 95 | 1021.6 |
| 20260903000120 | 66 | 131 | 1.0 | 2.0 | 0.00 | 0.00 | 0.00 | 95 | 1021.2 |
| 20260902235619 | 66 | 131 | 1.0 | 2.0 | 0.00 | 0.00 | 0.00 | 95 | 1021.1 |
| 20260902235114 | 66 | 95 | 1.0 | 3.0 | 0.00 | 0.00 | 0.00 | 95 | 1021.2 |
| 20260902234608 | 66 | 8 | 3.0 | 5.0 | 0.00 | 0.00 | 0.00 | 95 | 1021.4 |
| 20260902234106 | 66 | 130 | 1.0 | 2.0 | 0.00 | 0.00 | 0.00 | 95 | 1021.2 |
| 20260902233602 | 66 | 42 | 2.0 | 3.0 | 0.00 | 0.00 | 0.00 | 95 | 1021.3 |
| 20260902233056 | 66 | 76 | 4.0 | 5.0 | 0.00 | 0.00 | 0.00 | 95 | 1020.6 |
| 20260902232555 | 66 | 149 | 5.0 | 7.0 | 0.00 | 0.00 | 0.00 | 95 | 1020.3 |
| 20260902232050 | 66 | 75 | 2.0 | 6.0 | 0.00 | 0.00 | 0.00 | 95 | 1020.8 |
| 20260902231545 | 66 | 103 | 4.0 | 11.0 | 0.00 | 0.00 | 0.00 | 95 | 1020.4 |
| 20260902231044 | 66 | 78 | 7.0 | 9.0 | 0.00 | 0.00 | 0.00 | 95 | 1020.2 |
| 20260902230545 | 66 | 113 | 4.0 | 13.0 | 0.00 | 0.00 | 0.00 | 95 | 1020.3 |
| 20260902230044 | 66 | 162 | 8.0 | 9.0 | 0.00 | 0.00 | 0.00 | 94 | 1020.8 |
| 20260902225539 | 66 | 129 | 7.0 | 13.0 | 0.00 | 0.00 | 0.00 | 94 | 1020.6 |
| 20260902225039 | 67 | 139 | 4.0 | 9.0 | 0.00 | 0.00 | 0.00 | 94 | 1021.0 |